YC0TBU-11 Weather Reports


time (UTC)temp
C
wind
direction
speed
KPH
gust
KPH
rain 1hr
cm
rain 24hr
cm
rain mn
cm
humidity
%
barometer
mb
20260502233609 35 0.0 0.0 0.00 0.00 0.00 47 1010.9
20260502230552 35 0.0 0.0 0.00 0.00 0.00 47 1010.6
20260502223530 35 0.0 0.0 0.00 0.00 0.00 48 1010.2
20260502220530 35 0.0 0.0 0.00 0.00 0.00 48 1010.1
20260502213530 35 0.0 0.0 0.00 0.00 0.00 47 1010.2
20260502210530 35 0.0 0.0 0.00 0.00 0.00 48 1010.3
20260502203530 35 0.0 0.0 0.00 0.00 0.00 48 1010.3
20260502200530 35 0.0 0.0 0.00 0.00 0.00 48 1010.5
20260502193530 35 0.0 0.0 0.00 0.00 0.00 49 1010.5
20260502190530 33 0.0 0.0 0.00 0.00 0.00 52 1010.5
20260502183530 33 0.0 0.0 0.00 0.00 0.00 51 1010.8
20260502180530 33 0.0 0.0 0.00 0.00 0.00 51 1011.1
20260502163535 33 0.0 0.0 0.00 0.00 0.00 51 1011.6
20260502160513 33 0.0 0.0 0.00 0.00 0.00 51 1011.7
20260502150456 34 0.0 0.0 0.00 0.00 0.00 50 992.9
20260502130456 35 0.0 0.0 0.00 0.00 0.00 48 1011.2
20260502123456 35 0.0 0.0 0.00 0.00 0.00 48 1010.8
20260502120457 35 0.0 0.0 0.00 0.00 0.00 49 1010.2
20260502113502 35 0.0 0.0 0.00 0.00 0.00 49 1009.9
20260502110439 35 0.0 0.0 0.00 0.00 0.00 50 1009.4
20260502103439 35 0.0 0.0 0.00 0.00 0.00 49 1009.7
20260502100439 35 0.0 0.0 0.00 0.00 0.00 49 1009.6
20260502090439 36 0.0 0.0 0.00 0.00 0.00 47 1009.2
20260502070422 38 0.0 0.0 0.00 0.00 0.00 39 1009.3
20260502063422 38 0.0 0.0 0.00 0.00 0.00 40 1009.8
20260502060427 39 0.0 0.0 0.00 0.00 0.00 37 1010.0
20260502053405 39 0.0 0.0 0.00 0.00 0.00 37 1010.6
20260502050405 38 0.0 0.0 0.00 0.00 0.00 37 1011.1
20260502043405 38 0.0 0.0 0.00 0.00 0.00 38 1011.7
20260502040405 38 0.0 0.0 0.00 0.00 0.00 39 1012.4
20260502033405 38 0.0 0.0 0.00 0.00 0.00 39 1012.7
20260502030405 37 0.0 0.0 0.00 0.00 0.00 40 1012.9
20260502023405 36 0.0 0.0 0.00 0.00 0.00 42 1012.8
20260502020405 36 0.0 0.0 0.00 0.00 0.00 43 1012.8
20260502013405 34 0.0 0.0 0.00 0.00 0.00 46 1012.5
20260502010405 34 0.0 0.0 0.00 0.00 0.00 47 1012.2
20260502003410 35 0.0 0.0 0.00 0.00 0.00 47 1011.9
20260502000348 33 0.0 0.0 0.00 0.00 0.00 48 1011.2